Wind_Speed
7 7 8 8 8 8 8 9 8 8 9 9 10 10 10 10 10 10 10 11 12 12 11 10 10 10 11 12 12 12 13 13 13 13 13 13 13 14 13 13 13 13 14
8 8 9 9 9 9 9 9 9 9 10 10 10 11 11 11 11 10 11 11 12 12 11 11 11 10 10 11 12 13 13 14 13 13 13 13 14 15 14 14 14 14 14
8 9 10 10 10 10 10 10 10 10 10 10 11 11 11 11 11 12 12 11 11 10 11 11 11 11 11 10 11 12 12 13 13 13 14 14 15 15 15 15 15 16 16
8 9 9 9 9 10 10 11 11 11 11 11 11 11 11 11 11 12 12 12 12 12 12 12 12 12 12 11 12 13 13 13 14 14 15 15 15 15 16 16 16 16 17
8 9 9 8 9 9 10 10 10 10 11 11 11 12 12 12 12 12 12 12 12 12 13 13 13 13 13 13 13 14 14 14 14 15 15 16 16 17 17 17 17 18 18
7 7 8 9 9 9 10 11 11 11 11 11 11 12 12 11 12 12 12 12 13 13 14 14 14 14 14 13 14 14 15 15 15 16 16 17 17 18 18 18 18 18 19
7 7 8 9 10 10 11 11 11 11 11 11 11 11 11 11 11 12 13 13 13 14 14 14 14 14 15 15 15 15 15 15 15 16 16 17 18 18 19 19 19 20 20
7 8 9 9 10 11 11 11 11 11 10 11 11 10 11 11 12 12 13 13 14 15 15 15 15 15 15 16 16 17 16 16 16 16 17 17 17 18 19 20 20 20 21
8 9 10 11 11 11 11 12 11 11 11 10 11 11 12 12 12 13 13 13 14 15 15 16 16 16 16 17 16 16 16 17 17 17 17 18 17 18 18 18 19 20 21
9 9 10 10 11 11 11 11 11 10 11 11 11 12 12 13 13 13 14 15 15 16 16 16 17 17 17 17 17 17 17 17 17 17 17 17 18 18 19 19 19 20 20
9 10 10 10 11 11 11 11 11 11 11 12 12 13 13 13 13 14 15 15 16 16 17 17 18 17 17 17 18 17 17 17 17 17 17 18 19 19 19 20 20 20 20
10 11 11 11 11 11 11 11 12 12 12 13 13 14 14 14 15 15 15 16 16 17 17 17 17 17 17 17 17 17 17 17 17 17 18 18 19 20 20 20 20 20 20
10 11 11 11 11 12 12 13 12 13 13 13 14 14 15 15 16 16 16 16 16 16 17 17 16 16 16 16 16 16 17 17 17 18 19 19 20 20 20 20 19 20 20
12 12 12 12 12 13 13 14 14 14 14 15 15 15 15 16 16 16 16 16 16 16 16 16 16 16 16 16 16 16 17 18 18 18 19 19 19 19 19 19 19 19 20
13 13 13 13 13 14 14 14 15 15 16 16 16 16 16 16 16 16 16 16 16 16 16 16 16 16 17 17 17 17 18 19 19 19 19 19 20 20 19 19 19 20 20
13 13 14 14 14 15 15 15 15 16 16 16 16 16 16 16 16 17 16 16 16 16 16 17 17 17 18 18 18 18 19 20 20 19 20 20 20 20 20 20 20 20 21
15 15 15 15 15 16 16 16 17 17 16 16 16 16 16 16 17 17 17 17 17 17 17 18 18 19 19 19 19 20 20 20 20 20 21 21 20 20 20 21 21 21 22
16 17 17 16 16 16 17 17 17 17 16 16 17 17 17 17 17 18 18 18 18 18 19 19 20 20 20 21 21 21 21 21 21 21 21 21 22 22 22 22 23 23 24
17 18 18 17 17 18 18 18 18 17 17 17 17 17 18 18 18 18 19 19 19 20 20 20 20 20 20 20 21 21 21 22 22 21 21 21 22 22 22 23 24 25 25
18 18 19 19 19 19 19 19 18 18 18 19 19 19 19 20 20 20 20 21 21 21 21 20 20 20 20 20 21 22 22 22 22 22 22 23 23 23 24 24 25 25 26
19 20 20 20 20 20 19 19 19 19 20 20 21 21 20 21 21 21 21 21 21 21 21 21 21 21 21 21 22 23 23 23 23 24 24 24 25 25 25 26 26 26 26
21 22 22 21 20 20 20 20 20 20 21 21 21 22 22 22 22 22 22 21 21 21 22 22 22 23 23 23 23 24 24 24 24 24 25 25 26 26 26 27 27 27 27
22 23 23 22 22 22 22 22 22 22 22 22 22 22 23 24 23 23 22 22 22 23 23 23 24 24 25 25 25 25 25 25 25 25 25 26 27 27 28 28 28 28 27
23 24 24 24 24 24 24 24 24 24 23 23 24 24 24 24 24 23 23 23 23 23 24 24 25 25 26 27 27 27 27 26 27 27 27 27 28 28 28 29 28 28 28
25 25 25 26 26 25 26 26 26 25 25 25 25 26 26 25 25 25 25 25 24 25 25 25 26 27 27 28 28 28 27 28 28 28 29 29 29 29 29 29 29 29 29
26 26 26 27 27 27 26 27 27 27 27 27 27 27 27 27 26 26 26 26 26 27 27 27 28 28 28 27 27 27 27 28 28 29 29 29 29 30 29 29 29 29 29
Wind_Direction
259 256 259 259 260 265 265 266 268 269 268 267 268 269 269 267 267 266 267 269 273 273 273 269 268 265 263 260 260 257 257 258 259 259 259 257 259 262 264 264 261 263 263
257 257 261 260 262 265 267 268 269 268 270 268 269 270 268 267 266 266 267 268 271 271 270 270 269 267 269 265 259 255 255 257 259 262 262 261 260 262 262 261 261 263 265
260 261 263 263 264 265 268 269 269 272 270 270 271 272 269 268 267 266 266 268 269 269 270 273 274 273 273 268 262 259 259 260 262 263 262 263 261 262 262 261 262 264 265
264 265 265 266 269 270 272 274 275 272 270 273 273 273 271 269 268 267 267 269 271 274 274 276 278 278 275 271 267 265 265 263 262 263 262 264 263 265 264 263 263 265 266
269 269 271 273 275 275 276 279 277 275 275 274 274 273 271 269 267 268 269 271 272 273 275 277 279 277 276 275 271 268 267 265 265 264 265 266 266 266 265 264 265 266 267
274 275 280 280 280 279 278 280 279 275 276 279 279 275 272 270 271 271 269 271 271 273 274 275 276 275 273 273 273 272 270 269 268 268 268 269 268 267 266 265 266 267 267
280 281 280 279 278 279 279 281 279 279 275 276 276 275 275 273 273 274 272 272 272 274 275 275 275 275 273 271 272 272 270 268 270 271 272 273 271 268 267 266 267 268 268
283 280 281 282 282 282 281 281 282 279 279 276 275 275 275 275 275 275 275 274 274 274 274 275 276 276 275 273 272 272 272 270 270 272 273 274 271 271 270 268 267 268 267
289 286 285 286 285 283 284 284 282 279 279 277 275 274 275 274 275 277 276 276 276 275 274 274 274 276 277 275 272 272 272 271 271 272 272 272 272 272 271 270 270 269 269
290 290 290 290 288 287 286 285 283 280 278 277 275 275 276 277 277 278 279 278 278 277 275 273 273 275 276 274 272 272 271 271 271 271 272 272 272 272 272 272 271 271 270
288 291 293 291 291 289 286 284 284 281 280 279 278 278 278 278 278 279 280 281 281 279 277 275 274 274 274 272 271 271 272 271 271 271 272 272 272 273 273 273 272 271 270
291 291 291 290 290 291 289 285 288 283 281 281 281 280 280 279 279 280 280 281 282 280 279 278 277 276 276 274 271 270 271 272 272 273 274 275 274 274 275 274 273 271 269
291 292 291 289 289 288 289 289 290 285 283 283 283 282 282 281 282 282 281 282 281 279 280 279 277 277 277 275 272 272 273 273 274 274 276 277 277 277 277 275 272 270 268
291 293 293 290 288 288 289 288 289 288 287 285 283 282 282 283 284 283 283 282 281 280 280 280 278 278 279 276 273 272 272 274 274 275 276 278 278 279 278 275 272 269 270
289 290 290 291 290 289 289 290 290 291 289 285 283 283 282 282 284 283 282 282 280 279 279 279 279 278 278 277 274 273 273 274 275 275 277 278 278 278 277 276 272 269 271
286 288 289 289 290 291 291 290 290 291 290 288 285 284 283 283 283 283 283 281 280 280 280 280 279 279 279 278 277 276 275 276 275 276 278 279 277 275 275 274 273 271 271
285 288 289 288 289 290 291 291 290 289 290 290 289 284 283 284 283 283 284 283 281 280 280 280 281 280 280 277 276 278 278 276 276 277 278 279 278 276 275 274 274 274 274
285 287 287 288 289 290 291 292 291 290 290 289 288 283 282 284 284 284 284 284 283 282 281 281 282 282 281 278 276 278 278 277 276 277 277 278 278 277 276 275 276 276 276
284 285 286 287 289 290 291 292 291 291 291 289 289 286 282 283 284 284 284 284 285 283 282 282 282 282 282 280 279 279 278 277 276 276 277 279 279 278 276 275 276 276 277
285 286 286 288 290 290 290 291 290 291 290 288 288 288 284 282 283 284 285 285 284 284 283 283 283 282 282 282 281 280 278 277 275 276 278 279 280 278 278 278 277 277 277
285 287 287 287 286 287 288 288 289 288 289 288 287 286 286 285 284 284 285 284 284 283 282 283 283 282 282 283 283 282 279 277 276 277 278 280 280 280 279 280 280 279 279
285 286 286 286 284 284 285 286 286 287 287 287 288 286 286 285 286 286 286 284 284 282 282 283 282 282 283 284 284 283 281 280 280 279 280 280 281 281 280 280 281 281 280
283 284 284 284 283 283 283 285 284 284 286 286 286 286 285 285 286 286 286 286 284 282 282 283 283 283 283 283 283 282 280 279 280 281 282 282 282 282 281 279 280 280 279
281 282 282 282 283 283 283 283 282 282 284 286 285 285 285 285 284 284 285 286 286 284 283 283 283 282 283 283 282 281 279 279 280 281 282 282 283 282 281 280 280 280 279
281 281 281 283 283 283 283 282 282 282 283 284 284 284 284 285 285 283 283 283 284 284 284 284 284 284 284 283 281 280 279 279 280 282 282 282 282 282 281 280 280 279 278
281 282 282 282 282 282 282 282 282 281 281 282 282 282 283 283 283 282 282 282 283 283 284 284 285 286 286 284 282 281 280 280 281 282 283 283 282 282 281 280 279 280 279
Height
5869 5869 5869 5869 5869 5869 5868 5868 5868 5868 5868 5867 5867 5867 5866 5866 5866 5865 5865 5864 5864 5863 5863 5862 5862 5861 5860 5860 5860 5860 5860 5860 5860 5861 5861 5861 5861 5861 5861 5861 5861 5861 5861
5867 5867 5867 5867 5867 5866 5866 5866 5866 5866 5865 5865 5865 5864 5864 5863 5863 5863 5862 5862 5861 5861 5860 5860 5859 5858 5858 5856 5857 5857 5857 5857 5857 5858 5858 5858 5858 5858 5858 5858 5858 5858 5858
5866 5865 5865 5865 5865 5864 5864 5864 5863 5863 5863 5863 5862 5862 5861 5861 5860 5860 5859 5859 5859 5858 5858 5857 5857 5856 5855 5854 5854 5854 5854 5854 5855 5855 5855 5855 5855 5855 5855 5855 5855 5855 5855
5864 5863 5863 5863 5862 5862 5862 5861 5861 5861 5860 5860 5860 5859 5859 5858 5858 5857 5857 5856 5856 5855 5855 5854 5854 5853 5853 5853 5852 5852 5852 5852 5852 5852 5852 5852 5852 5852 5851 5852 5852 5852 5852
5862 5861 5861 5861 5860 5860 5860 5859 5859 5858 5858 5857 5857 5856 5856 5855 5855 5855 5854 5853 5853 5852 5852 5851 5851 5851 5850 5850 5849 5849 5849 5849 5848 5848 5848 5848 5848 5848 5848 5848 5848 5848 5848
5860 5860 5859 5859 5858 5858 5857 5857 5856 5856 5855 5855 5854 5854 5853 5853 5853 5852 5851 5851 5850 5850 5849 5849 5848 5848 5847 5847 5846 5846 5845 5845 5845 5845 5845 5844 5844 5844 5844 5844 5844 5844 5844
5859 5858 5858 5857 5856 5856 5855 5854 5854 5853 5853 5852 5852 5851 5851 5850 5850 5849 5849 5848 5847 5846 5846 5845 5845 5844 5843 5843 5842 5842 5842 5841 5841 5841 5841 5840 5840 5840 5840 5840 5840 5839 5839
5857 5856 5856 5855 5854 5854 5853 5852 5851 5850 5850 5850 5849 5849 5849 5849 5847 5846 5846 5845 5844 5843 5842 5842 5841 5840 5840 5839 5839 5838 5838 5837 5837 5837 5837 5836 5836 5835 5835 5835 5835 5834 5834
5855 5854 5853 5853 5852 5851 5850 5849 5849 5848 5847 5847 5846 5846 5846 5845 5844 5844 5842 5842 5841 5840 5839 5838 5837 5837 5836 5835 5835 5834 5834 5833 5833 5833 5832 5832 5831 5831 5830 5830 5829 5829 5829
5853 5852 5851 5850 5849 5848 5848 5847 5846 5845 5845 5844 5843 5843 5842 5841 5841 5840 5839 5838 5837 5836 5835 5834 5833 5833 5832 5831 5830 5830 5830 5829 5829 5828 5828 5827 5826 5826 5825 5825 5824 5824 5824
5850 5850 5849 5848 5847 5846 5845 5844 5843 5842 5842 5841 5840 5839 5839 5838 5837 5836 5835 5834 5833 5832 5831 5830 5829 5828 5827 5826 5826 5825 5825 5825 5824 5824 5823 5822 5822 5821 5820 5819 5818 5818 5818
5848 5847 5846 5845 5844 5843 5842 5841 5841 5839 5838 5838 5837 5836 5835 5834 5833 5832 5831 5830 5828 5827 5826 5825 5824 5823 5822 5821 5821 5821 5820 5820 5820 5819 5818 5818 5817 5815 5814 5812 5811 5811 5812
5845 5844 5843 5842 5841 5840 5839 5838 5837 5836 5835 5834 5833 5832 5831 5830 5829 5828 5827 5825 5824 5823 5822 5820 5820 5819 5818 5817 5816 5816 5816 5815 5815 5814 5814 5813 5811 5810 5808 5806 5805 5805 5807
5842 5841 5840 5839 5838 5837 5836 5835 5834 5833 5832 5830 5829 5828 5827 5826 5824 5823 5822 5821 5820 5819 5817 5816 5815 5814 5813 5813 5812 5811 5811 5811 5810 5809 5808 5807 5806 5804 5803 5801 5800 5801 5801
5839 5838 5837 5836 5835 5834 5833 5831 5830 5829 5827 5826 5825 5824 5823 5821 5820 5819 5818 5817 5816 5814 5813 5812 5811 5810 5809 5808 5807 5807 5806 5805 5805 5804 5803 5802 5801 5799 5798 5797 5796 5796 5796
5836 5835 5834 5833 5831 5830 5829 5828 5826 5825 5823 5822 5820 5819 5818 5817 5816 5815 5813 5812 5811 5810 5809 5808 5806 5805 5804 5803 5802 5801 5801 5800 5799 5799 5798 5797 5796 5794 5793 5792 5792 5791 5791
5832 5831 5830 5829 5827 5826 5825 5823 5822 5821 5819 5817 5816 5815 5813 5812 5811 5810 5808 5807 5806 5805 5804 5803 5801 5800 5799 5798 5797 5796 5795 5794 5793 5793 5792 5791 5790 5789 5788 5787 5786 5785 5785
5827 5826 5825 5824 5823 5821 5820 5819 5817 5816 5814 5812 5811 5810 5809 5807 5806 5805 5803 5802 5801 5799 5798 5797 5796 5795 5793 5792 5791 5790 5789 5788 5787 5787 5786 5785 5784 5783 5782 5781 5780 5779 5778
5823 5821 5820 5819 5818 5817 5815 5814 5812 5811 5809 5808 5806 5805 5803 5802 5801 5799 5798 5797 5795 5794 5793 5791 5790 5789 5787 5786 5785 5784 5783 5782 5781 5780 5779 5778 5777 5776 5775 5774 5773 5772 5771
5817 5816 5815 5814 5812 5811 5810 5808 5807 5806 5804 5803 5801 5799 5798 5797 5795 5794 5792 5791 5789 5788 5786 5785 5784 5783 5782 5780 5779 5778 5777 5776 5774 5773 5772 5771 5770 5769 5768 5766 5765 5764 5763
5811 5810 5809 5808 5807 5805 5804 5803 5802 5800 5799 5797 5795 5794 5792 5791 5789 5787 5786 5784 5783 5781 5780 5779 5778 5777 5775 5774 5773 5771 5770 5768 5767 5766 5765 5764 5762 5761 5760 5758 5757 5755 5754
5805 5804 5803 5801 5800 5799 5798 5797 5796 5794 5793 5791 5789 5788 5786 5784 5782 5781 5779 5778 5776 5775 5774 5772 5771 5770 5769 5767 5766 5764 5763 5761 5760 5759 5757 5756 5754 5753 5751 5750 5748 5746 5745
5799 5798 5796 5795 5794 5792 5791 5790 5789 5788 5786 5784 5783 5781 5779 5777 5776 5774 5772 5771 5770 5768 5767 5766 5764 5763 5761 5760 5759 5757 5756 5754 5753 5751 5749 5748 5746 5744 5742 5740 5739 5737 5736
5792 5791 5789 5788 5787 5785 5784 5783 5781 5780 5779 5777 5776 5774 5772 5770 5769 5767 5766 5764 5763 5761 5760 5758 5757 5755 5754 5752 5750 5749 5747 5746 5745 5743 5741 5740 5738 5735 5733 5731 5730 5728 5727
5784 5783 5782 5780 5779 5778 5776 5775 5773 5772 5771 5770 5768 5767 5765 5763 5762 5760 5758 5757 5755 5754 5752 5750 5749 5747 5745 5743 5742 5740 5739 5737 5736 5734 5732 5731 5729 5727 5725 5723 5721 5719 5718
5777 5775 5774 5772 5771 5770 5768 5767 5765 5764 5763 5762 5760 5758 5757 5755 5754 5752 5750 5749 5747 5746 5744 5742 5740 5739 5736 5734 5733 5731 5730 5728 5727 5725 5723 5722 5719 5717 5716 5714 5712 5710 5709